Sandberg, CA

4:59 PM PDT on April 28, 2017 (GMT -0700)
Sandberg

Weather History for KSDB - October, 2011

Change the Weather History Date:

Saturday, October 8, 2011

  Actual Average Record
Temperature  
Mean Temperature 57 °F 62 °F  
Max Temperature 67 °F 70 °F 90 °F (1996)
Min Temperature 47 °F 54 °F 32 °F (1949)
Degree Days  
Heating Degree Days 8 5  
Month to date heating degree days 88 38  
Since 1 July heating degree days 111 116  
Cooling Degree Days 0 2  
Month to date cooling degree days 15 24  
Year to date cooling degree days 1031 970  
Growing Degree Days 7 (Base 50)    
Moisture  
Dew Point 30 °F    
Average Humidity 40    
Maximum Humidity 54    
Minimum Humidity 26    
Precipitation  
Precipitation 0.00 in 0.01 in 0.02 in (1972)
Month to date precipitation 0.51 0.10  
Year to date precipitation 6.36 8.80  
Since 1 July precipitation 0.54  
Sea Level Pressure  
Sea Level Pressure 30.04 in    
Wind  
Wind Speed 6 mph (NE)    
Max Wind Speed 20 mph    
Max Gust Speed 24 mph    
Visibility 10 miles    
Events      
T = Trace of Precipitation, MM = Missing Value Source: NWS Daily Summary

Daily Weather History Graph

Daily Weather History Graph

Search for Another Location

Airport or City:

Trip Planner

Search our weather history database for the weather conditions in past years. The results will help you decide how hot, cold, wet, or windy it might be!

Date:

Astronomy

Oct. 08, 2011 Rise Set
Actual Time 6:54 AM PDT 6:29 PM PDT
Civil Twilight 6:29 AM PDT 6:54 PM PDT
Nautical Twilight 6:00 AM PDT 7:23 PM PDT
Astronomical Twilight 5:31 AM PDT 7:53 PM PDT
Moon 4:37 PM PDT (10/8) 3:53 AM PDT (10/8)
Length of Visible Light 12h 25m
Length of Day
11h 34m
Waxing Gibbous, 90% of the Moon is Illuminated
Oct 8
Waxing Gibbous
Oct 11
Full
Oct 19
Last Quarter
Oct 26
New
Nov 2
First Quarter

Hourly Weather History & Observations

Time (PDT) Temp. Dew Point Humidity Pressure Visibility Wind Dir Wind Speed Gust Speed Precip Events Conditions
12:52 AM 48.9 °F 28.9 °F 46% 30.06 in 10.0 mi NW 8.1 mph - N/A   Clear
1:52 AM 48.0 °F 28.0 °F 46% 30.06 in 10.0 mi NW 8.1 mph - N/A   Clear
2:52 AM 51.1 °F 27.0 °F 39% 30.05 in 10.0 mi WNW 3.5 mph - N/A   Clear
3:52 AM 55.0 °F 26.1 °F 33% 30.03 in 10.0 mi Calm Calm - N/A   Clear
4:52 AM 55.0 °F 25.0 °F 31% 30.04 in 10.0 mi Calm Calm - N/A   Clear
5:52 AM 54.0 °F 26.1 °F 34% 30.05 in 10.0 mi East 4.6 mph - N/A   Clear
6:52 AM 54.0 °F 25.0 °F 33% 30.06 in 10.0 mi East 4.6 mph - N/A   Clear
7:52 AM 55.0 °F 26.1 °F 33% 30.08 in 10.0 mi Calm Calm - N/A   Clear
8:52 AM 55.9 °F 28.0 °F 34% 30.10 in 10.0 mi East 6.9 mph - N/A   Clear
9:52 AM 59.0 °F 33.1 °F 38% 30.10 in 10.0 mi Variable 3.5 mph - N/A   Clear
10:02 AM - - N/A% - - North - - N/A   Unknown
10:52 AM 60.1 °F 32.0 °F 35% 30.09 in 10.0 mi East 12.7 mph 16.1 mph N/A   Clear
11:52 AM 62.1 °F 28.0 °F 28% 30.08 in 10.0 mi East 12.7 mph - N/A   Clear
12:52 PM 64.0 °F 30.0 °F 28% 30.06 in 10.0 mi East 11.5 mph 18.4 mph N/A   Clear
1:52 PM 66.0 °F 30.0 °F 26% 30.03 in 10.0 mi East 16.1 mph 21.9 mph N/A   Clear
2:52 PM 64.9 °F 30.0 °F 27% 30.01 in 10.0 mi East 10.4 mph 18.4 mph N/A   Clear
3:52 PM 66.0 °F 30.0 °F 26% 29.99 in 10.0 mi NNE 5.8 mph 16.1 mph N/A   Clear
4:52 PM 64.0 °F 30.9 °F 29% 29.99 in 10.0 mi ENE 5.8 mph - N/A   Clear
5:52 PM 61.0 °F 32.0 °F 34% 29.99 in 10.0 mi ENE 4.6 mph - N/A   Clear
6:52 PM 55.9 °F 36.0 °F 47% 30.01 in 10.0 mi North 10.4 mph - N/A   Clear
7:52 PM 55.0 °F 36.0 °F 49% 30.01 in 10.0 mi North 9.2 mph - N/A   Clear
8:52 PM 54.0 °F 37.0 °F 53% 30.03 in 10.0 mi North 9.2 mph - N/A   Clear
9:52 PM 55.9 °F 36.0 °F 47% 30.02 in 10.0 mi North 3.5 mph - N/A   Clear
10:52 PM 57.9 °F 33.1 °F 39% 30.02 in 10.0 mi South 3.5 mph - N/A   Clear
11:52 PM 57.0 °F 32.0 °F 39% 30.01 in 10.0 mi Calm Calm - N/A   Clear